Regional Weather Roundup
Issued by NWS

Home | Current Version | Previous Version | Text Only | Print | Product List | Glossary On
Versions: 1 2 3 4 5 6 7 8 9 10 11 12 13 14 15 16 17 18 19 20 21 22 23 24 25 26 27 28 29 30 31 32 33 34 35 36 37 38 39 40 41 42 43 44 45 46 47 48 49 50
000
ASUS43 KMKX 230321
RWRWI

WISCONSIN REGIONAL WEATHER ROUNDUP
NATIONAL WEATHER SERVICE MILWAUKEE/SULLIVAN WI
1000 PM CDT SUN OCT 22 2017

NOTE: "FAIR" INDICATES FEW OR NO CLOUDS BELOW 12,000 FEET WITH NO
SIGNIFICANT WEATHER AND/OR OBSTRUCTIONS TO VISIBILITY.

WIZ001-002-006>008-014>016-023>028-230400-
NORTHWEST WISCONSIN

CITY           SKY/WX    TMP DP  RH WIND       PRES   REMARKS
SUPERIOR ARPT  PTCLDY    50  34  54 S6        29.86F
ASHLAND        CLOUDY    50  34  54 S8        29.91F
HAYWARD        PTCLDY    42  38  85 CALM      29.93F
SIREN          CLOUDY    50  32  49 S7        29.90F
CUMBERLAND     CLOUDY    43  34  70 S5        29.94S
RICE LAKE      CLOUDY    45  34  65 SE6       29.96S
CHETEK         CLOUDY    44  36  71 E8        29.95F
LADYSMITH      CLEAR     45  41  86 S6        29.98S
EAU CLAIRE     CLEAR     48  42  80 S10       29.97S
MENOMONIE      CLEAR     44  38  81 E3        29.97S
NEW RICHMOND   PTCLDY    49  32  52 S8        29.93F
OSCEOLA        PTCLDY    51  34  51 S8        29.94F
$$

WIZ003>005-009-010-017-018-230400-
NORTH CENTRAL WISCONSIN

CITY           SKY/WX    TMP DP  RH WIND       PRES   REMARKS
MANITOWISH WTR CLEAR     41  41 100 S6        29.96S
ARBOR VITAE    CLEAR     43  40  89 S6        29.97F
WOODRUFF       CLEAR     43  40  89 S6        29.97F
RHINELANDER    CLEAR     42  41  96 S6        29.99F
EAGLE RIVER    NOT AVBL
LAND O LAKES   CLEAR     39  38  98 CALM      29.99F
PHILLIPS       CLOUDY    42  40  93 S6        29.96F
TOMAHAWK       CLEAR     38  37  96 CALM      30.00S
MEDFORD        CLEAR     40  39  96 S6        29.98F
MERRILL        CLOUDY    38  38 100 CALM      30.00F
$$

WIZ029-030-035-036-043>047-230400-
CENTRAL WISCONSIN

CITY           SKY/WX    TMP DP  RH WIND       PRES   REMARKS
WAUSAU         CLOUDY    44  43  96 SE5       30.00S
MOSINEE        CLEAR     43  43 100 S5        30.02S
MARSHFIELD     CLOUDY    43  41  93 S3        30.00S
STEVENS POINT  FOG       41  41 100 CALM      30.03S VSB 1/2
WAUPACA        FOG       46  46  97 CALM      30.03F VSB 1/2
WAUTOMA        FOG      N/A N/A N/A CALM      30.04S VSB 1/4
WISC RAPIDS    PTCLDY    43  42  97 S3        30.03S
CAMP DOUGLAS   NOT AVBL
$$

WIZ011>013-019>022-031-037>040-048>050-230400-
NORTHEAST WISCONSIN

CITY           SKY/WX    TMP DP  RH WIND       PRES   REMARKS
ANTIGO           N/A     40  40 100 SW3       30.01S FOG
SHAWANO        PTCLDY    48  46  93 CALM      30.02F FOG
OCONTO           N/A     45  45  99 CALM      30.02F VSB 1
STURGEON BAY   CLOUDY    50  48  93 SW5       30.03F
GREEN BAY      PTCLDY    49  49 100 CALM      30.03F
MANITOWOC      CLOUDY    50  49  96 W3        30.04S
APPLETON       PTCLDY    48  48 100 CALM      30.02F
CLINTONVILLE   FOG       46  45  93 CALM      30.03S VSB 1/2
OSHKOSH        CLOUDY    48  47  96 CALM      30.03S
$$

WIZ032>034-041-042-053>061-230400-
SOUTHWEST WISCONSIN

CITY           SKY/WX    TMP DP  RH WIND       PRES   REMARKS
LA CROSSE      CLOUDY    49  44  83 S7        30.01S
SPARTA         CLOUDY    37  37 100 CALM      30.03S
VIROQUA        CLOUDY    46  44  93 S6        30.02F
BOSCOBEL       FOG       44  42  93 CALM      30.05S VSB 1/4
PRAIRIE DU CHI CLOUDY    46  43  90 CALM      30.04S
PLATTEVILLE    CLOUDY    47  47 100 S5        30.05S
$$

WIZ056-057-062-063-064-067-068-230400-
SOUTH CENTRAL WISCONSIN

CITY           SKY/WX    TMP DP  RH WIND       PRES   REMARKS
REEDSBURG      PTCLDY    46  46 100 CALM      30.04S
BARABOO/DELLS  PTCLDY    46  44  96 CALM      30.04S
LONE ROCK      FOG       43  43 100 CALM      30.04S VSB 1/2
MINERAL POINT  CLOUDY    46  46 100 S3        30.04F
MADISON        CLOUDY    48  46  93 CALM      30.04F
MIDDLETON      CLOUDY    48  48 100 CALM      30.05S
WATERTOWN      CLOUDY    48  48 100 CALM      30.04S
MONROE         CLOUDY    48  45  87 W6        30.05S
JANESVILLE     CLOUDY    50  50 100 NW3       30.05S
$$

WIZ051-052-058>065-066-070>072-230400-
SOUTHEAST WISCONSIN

CITY           SKY/WX    TMP DP  RH WIND       PRES   REMARKS
MILWAUKEE      CLOUDY    52  51  97 NW5       30.04F
WAUKESHA       NOT AVBL
MILWAUKEE/TIMM MOCLDY    50  45  81 CALM      30.04F
RACINE         CLOUDY    51  50  96 NW3       30.05F
BURLINGTON     CLOUDY    49  49 100 CALM      30.04F
KENOSHA        CLOUDY    51  49  92 NW3       30.04F
FOND DU LAC    CLOUDY    50  46  86 CALM      30.03F
SHEBOYGAN      LGT RAIN  50  50 100 W3        30.03F
WEST BEND      LGT RAIN  48  48 100 CALM      30.03F
JUNEAU         PTCLDY    47  47  98 CALM      30.05F
$$

LSZ147-162-230400-
LAKE SUPERIOR

STATION/POSITION TIME  TEMP    WIND        PRES    WAVE
                       AIR SEA DIR/SP/G            HT/PER
                 (UTC) (F)     (DEG/KT/KT) (MB)    (FT/S)
W MID LAKE BUOY  0250   53 52              1012.0F   3/ 4
DEVILS ISLAND    0300   55     190/  9/ 12 1012.1F
SAXON HARBOR     0240   50     190/  4/  9 1012.5F
$$

LMZ867-665-643>646-230400-
LAKE MICHIGAN

STATION/POSITION TIME  TEMP    WIND        PRES    WAVE
                       AIR SEA DIR/SP/G            HT/PER
                 (UTC) (F)     (DEG/KT/KT) (MB)    (FT/S)
S GREEN BAY BUOY 0300   53 58  260/ 10/ 12 1016.3
N MID LAKE BUOY  0250   53 57  230/ 10/ 12 1016.7F   2/ 7
NORTHPORT PIER   0240   51     240/  2/  5 1016.3F
KEWAUNEE LAKESHO 0300   50     280/  4/  6 1016.2
SHEBOYGAN LAKESH 0300   51     170/  1/  2 1017.0F
PORT WASHINGTON  0240   51     290/  3/  5 1017.9F
MILWAUKEE LAKESH 0300   51     310/  4/  5   N/A
S MID LAKE BUOY  0250   55 60   20/ 12/ 14 1016.5R   3/ 6
KENOSHA   LAKESH 0300   51     320/  4/  6 1017.3
$$

TC  - TEMPERATURE IN CELSIUS
VSB - VISIBILITY IN STATUTE MILES
WCI - WIND CHILL INDEX
HX  - HEAT INDEX





USA.gov is the U.S. government's official web portal to all federal, state and local government web resources and services.